Year,Month,Day,Hour,Minute,Value (Times are PST for temperature in C)
2018,04,25,00,00,8.90
2018,04,25,00,01,8.90
2018,04,25,00,02,8.90
2018,04,25,00,03,8.90
2018,04,25,00,04,8.90
2018,04,25,00,05,8.90
2018,04,25,00,06,8.90
2018,04,25,00,07,9.00
2018,04,25,00,08,9.00
2018,04,25,00,09,9.00
2018,04,25,00,10,9.10
2018,04,25,00,11,9.10
2018,04,25,00,12,9.10
2018,04,25,00,13,9.10
2018,04,25,00,14,9.10
2018,04,25,00,15,9.10
2018,04,25,00,16,9.10
2018,04,25,00,17,9.10
2018,04,25,00,18,9.10
2018,04,25,00,19,9.10
2018,04,25,00,20,9.10
2018,04,25,00,21,9.10
2018,04,25,00,22,9.10
2018,04,25,00,23,9.10
2018,04,25,00,24,9.10
2018,04,25,00,25,9.10
2018,04,25,00,26,9.10
2018,04,25,00,27,9.10
2018,04,25,00,28,9.00
2018,04,25,00,29,9.10
2018,04,25,00,30,9.10
2018,04,25,00,31,9.10
2018,04,25,00,32,9.20
2018,04,25,00,33,9.30
2018,04,25,00,34,9.50
2018,04,25,00,35,9.60
2018,04,25,00,36,9.70
2018,04,25,00,37,9.80
2018,04,25,00,38,9.80
2018,04,25,00,39,9.90
2018,04,25,00,40,9.90
2018,04,25,00,41,9.90
2018,04,25,00,42,10.00
2018,04,25,00,43,10.00
2018,04,25,00,44,10.00
2018,04,25,00,45,10.00
2018,04,25,00,46,10.00
2018,04,25,00,47,10.10
2018,04,25,00,48,10.20
2018,04,25,00,49,10.30
2018,04,25,00,50,10.40
2018,04,25,00,51,10.40
2018,04,25,00,52,10.50
2018,04,25,00,53,10.50
2018,04,25,00,54,10.60
2018,04,25,00,55,10.70
2018,04,25,00,56,10.70
2018,04,25,00,57,10.90
2018,04,25,00,58,11.00
2018,04,25,00,59,11.10
2018,04,25,01,00,11.20
2018,04,25,01,01,11.20
2018,04,25,01,02,11.30
2018,04,25,01,03,11.30
2018,04,25,01,04,11.30
2018,04,25,01,05,11.30
2018,04,25,01,06,11.40
2018,04,25,01,07,11.40
2018,04,25,01,08,11.50
2018,04,25,01,09,11.50
2018,04,25,01,10,11.50
2018,04,25,01,11,11.50
2018,04,25,01,12,11.50
2018,04,25,01,13,11.50
2018,04,25,01,14,11.40
2018,04,25,01,15,11.40
2018,04,25,01,16,11.30
2018,04,25,01,17,11.20
2018,04,25,01,18,11.10
2018,04,25,01,19,11.10
2018,04,25,01,20,11.00
2018,04,25,01,21,10.90
2018,04,25,01,22,10.80
2018,04,25,01,23,10.80
2018,04,25,01,24,10.70
2018,04,25,01,25,10.70
2018,04,25,01,26,10.70
2018,04,25,01,27,10.60
2018,04,25,01,28,10.60
2018,04,25,01,29,10.60
2018,04,25,01,30,10.50
2018,04,25,01,31,10.50
2018,04,25,01,32,10.40
2018,04,25,01,33,10.40
2018,04,25,01,34,10.40
2018,04,25,01,35,10.30
2018,04,25,01,36,10.30
2018,04,25,01,37,10.20
2018,04,25,01,38,10.20
2018,04,25,01,39,10.10
2018,04,25,01,40,10.10
2018,04,25,01,41,10.00
2018,04,25,01,42,9.90
2018,04,25,01,43,9.80
2018,04,25,01,44,9.80
2018,04,25,01,45,9.70
2018,04,25,01,46,9.60
2018,04,25,01,47,9.60
2018,04,25,01,48,9.50
2018,04,25,01,49,9.50
2018,04,25,01,50,9.40
2018,04,25,01,51,9.30
2018,04,25,01,52,9.30
2018,04,25,01,53,9.20
2018,04,25,01,54,9.20
2018,04,25,01,55,9.20
2018,04,25,01,56,9.20
2018,04,25,01,57,9.10
2018,04,25,01,58,9.10
2018,04,25,01,59,9.10
2018,04,25,02,00,9.10
2018,04,25,02,01,9.10
2018,04,25,02,02,9.10
2018,04,25,02,03,9.10
2018,04,25,02,04,9.10
2018,04,25,02,05,9.10
2018,04,25,02,06,9.10
2018,04,25,02,07,9.10
2018,04,25,02,08,9.00
2018,04,25,02,09,9.00
2018,04,25,02,10,8.90
2018,04,25,02,11,8.90
2018,04,25,02,12,8.90
2018,04,25,02,13,8.90
2018,04,25,02,14,8.90
2018,04,25,02,15,8.90
2018,04,25,02,16,8.90
2018,04,25,02,17,8.90
2018,04,25,02,18,8.90
2018,04,25,02,19,8.90
2018,04,25,02,20,8.90
2018,04,25,02,21,8.90
2018,04,25,02,22,8.90
2018,04,25,02,23,8.90
2018,04,25,02,24,8.90
2018,04,25,02,25,8.90
2018,04,25,02,26,8.90
2018,04,25,02,27,8.90
2018,04,25,02,28,8.90
2018,04,25,02,29,8.90
2018,04,25,02,30,8.90
2018,04,25,02,31,8.90
2018,04,25,02,32,8.90
2018,04,25,02,33,8.90
2018,04,25,02,34,8.90
2018,04,25,02,35,8.90
2018,04,25,02,36,8.90
2018,04,25,02,37,8.90
2018,04,25,02,38,8.90
2018,04,25,02,39,8.90
2018,04,25,02,40,8.90
2018,04,25,02,41,8.90
2018,04,25,02,42,8.90
2018,04,25,02,43,8.90
2018,04,25,02,44,8.90
2018,04,25,02,45,8.90
2018,04,25,02,46,8.90
2018,04,25,02,47,8.90
2018,04,25,02,48,8.90
2018,04,25,02,49,8.80
2018,04,25,02,50,8.80
2018,04,25,02,51,8.80
2018,04,25,02,52,8.80
2018,04,25,02,53,8.70
2018,04,25,02,54,8.70
2018,04,25,02,55,8.70
2018,04,25,02,56,8.60
2018,04,25,02,57,8.60
2018,04,25,02,58,8.60
2018,04,25,02,59,8.50
2018,04,25,03,00,8.50
2018,04,25,03,01,8.40
2018,04,25,03,02,8.40
2018,04,25,03,03,8.40
2018,04,25,03,06,8.30
2018,04,25,03,07,8.30
2018,04,25,03,08,8.20
2018,04,25,03,09,8.20
2018,04,25,03,10,8.20
2018,04,25,03,11,8.20
2018,04,25,03,12,8.20
2018,04,25,03,13,8.20
2018,04,25,03,14,8.20
2018,04,25,03,15,8.20
2018,04,25,03,16,8.20
2018,04,25,03,17,8.20
2018,04,25,03,18,8.20
2018,04,25,03,19,8.20
2018,04,25,03,20,8.20
2018,04,25,03,21,8.20
2018,04,25,03,22,8.20
2018,04,25,03,23,8.20
2018,04,25,03,24,8.20
2018,04,25,03,25,8.20
2018,04,25,03,26,8.20
2018,04,25,03,27,8.20
2018,04,25,03,28,8.20
2018,04,25,03,29,8.20
2018,04,25,03,30,8.20
2018,04,25,03,31,8.20
2018,04,25,03,32,8.20
2018,04,25,03,33,8.20
2018,04,25,03,34,8.20
2018,04,25,03,35,8.20
2018,04,25,03,36,8.20
2018,04,25,03,37,8.20
2018,04,25,03,38,8.20
2018,04,25,03,39,8.20
2018,04,25,03,40,8.20
2018,04,25,03,41,8.20
2018,04,25,03,42,8.20
2018,04,25,03,43,8.20
2018,04,25,03,44,8.20
2018,04,25,03,45,8.20
2018,04,25,03,46,8.20
2018,04,25,03,47,8.20
2018,04,25,03,48,8.20
2018,04,25,03,49,8.20
2018,04,25,03,50,8.20
2018,04,25,03,51,8.20
2018,04,25,03,52,8.20
2018,04,25,03,53,8.20
2018,04,25,03,54,8.20
2018,04,25,03,55,8.20
2018,04,25,03,56,8.30
2018,04,25,03,57,8.30
2018,04,25,03,58,8.30
2018,04,25,03,59,8.40
2018,04,25,04,00,8.50
2018,04,25,04,01,8.50
2018,04,25,04,02,8.60
2018,04,25,04,03,8.60
2018,04,25,04,04,8.70
2018,04,25,04,05,8.70
2018,04,25,04,06,8.70
2018,04,25,04,07,8.70
2018,04,25,04,08,8.70
2018,04,25,04,09,8.70
2018,04,25,04,10,8.70
2018,04,25,04,11,8.70
2018,04,25,04,12,8.80
2018,04,25,04,13,8.80
2018,04,25,04,14,8.80
2018,04,25,04,15,8.90
2018,04,25,04,16,9.00
2018,04,25,04,17,9.10
2018,04,25,04,18,9.20
2018,04,25,04,19,9.30
2018,04,25,04,20,9.40
2018,04,25,04,21,9.50
2018,04,25,04,22,9.60
2018,04,25,04,23,9.70
2018,04,25,04,24,9.80
2018,04,25,04,25,9.90
2018,04,25,04,26,10.00
2018,04,25,04,27,10.10
2018,04,25,04,28,10.10
2018,04,25,04,29,10.20
2018,04,25,04,30,10.20
2018,04,25,04,31,10.30
2018,04,25,04,32,10.30
2018,04,25,04,33,10.30
2018,04,25,04,34,10.30
2018,04,25,04,35,10.40
2018,04,25,04,36,10.40
2018,04,25,04,37,10.40
2018,04,25,04,38,10.40
2018,04,25,04,39,10.50
2018,04,25,04,40,10.70
2018,04,25,04,41,10.80
2018,04,25,04,42,10.90
2018,04,25,04,43,11.00
2018,04,25,04,44,11.00
2018,04,25,04,45,11.00
2018,04,25,04,46,11.00
2018,04,25,04,47,11.00
2018,04,25,04,48,11.00
2018,04,25,04,49,11.10
2018,04,25,04,50,11.10
2018,04,25,04,51,11.10
2018,04,25,04,52,11.10
2018,04,25,04,53,11.10
2018,04,25,04,54,11.10
2018,04,25,04,55,11.10
2018,04,25,04,56,11.10
2018,04,25,04,57,11.10
2018,04,25,04,58,11.10
2018,04,25,04,59,11.10
2018,04,25,05,00,11.00
2018,04,25,05,01,11.00
2018,04,25,05,02,11.10
2018,04,25,05,03,11.10
2018,04,25,05,04,11.10
2018,04,25,05,05,11.10
2018,04,25,05,06,11.10
2018,04,25,05,07,11.20
2018,04,25,05,08,11.20
2018,04,25,05,09,11.20
2018,04,25,05,10,11.30
2018,04,25,05,11,11.30
2018,04,25,05,12,11.30
2018,04,25,05,13,11.30
2018,04,25,05,14,11.40
2018,04,25,05,15,11.50
2018,04,25,05,16,11.50
2018,04,25,05,17,11.50
2018,04,25,05,18,11.60
2018,04,25,05,19,11.60
2018,04,25,05,20,11.70
2018,04,25,05,21,11.70
2018,04,25,05,22,11.80
2018,04,25,05,23,11.80
2018,04,25,05,24,11.90
2018,04,25,05,25,11.90
2018,04,25,05,26,11.90
2018,04,25,05,27,11.90
2018,04,25,05,28,11.90
2018,04,25,05,29,11.90
2018,04,25,05,30,12.00
2018,04,25,05,31,12.00
2018,04,25,05,32,12.00
2018,04,25,05,33,11.90
2018,04,25,05,34,11.90
2018,04,25,05,35,11.90
2018,04,25,05,36,11.80
2018,04,25,05,37,11.80
2018,04,25,05,38,11.70
2018,04,25,05,39,11.70
2018,04,25,05,40,11.70
2018,04,25,05,41,11.60
2018,04,25,05,42,11.50
2018,04,25,05,43,11.50
2018,04,25,05,44,11.40
2018,04,25,05,45,11.40
2018,04,25,05,46,11.30
2018,04,25,05,47,11.30
2018,04,25,05,48,11.20
2018,04,25,05,49,11.10
2018,04,25,05,50,11.10
2018,04,25,05,51,11.00
2018,04,25,05,52,11.00
2018,04,25,05,53,10.90
2018,04,25,05,54,10.90
2018,04,25,05,55,10.80
2018,04,25,05,56,10.80
2018,04,25,05,57,10.80
2018,04,25,05,58,10.70
2018,04,25,05,59,10.70
2018,04,25,06,00,10.70
2018,04,25,06,01,10.60
2018,04,25,06,02,10.60
2018,04,25,06,03,10.50
2018,04,25,06,04,10.50
2018,04,25,06,05,10.40
2018,04,25,06,06,10.40
2018,04,25,06,07,10.30
2018,04,25,06,08,10.30
2018,04,25,06,09,10.20
2018,04,25,06,10,10.20
2018,04,25,06,11,10.20
2018,04,25,06,12,10.20
2018,04,25,06,13,10.10
2018,04,25,06,14,10.10
2018,04,25,06,15,10.00
2018,04,25,06,16,10.00
2018,04,25,06,17,9.90
2018,04,25,06,18,9.90
2018,04,25,06,19,9.90
2018,04,25,06,20,9.80
2018,04,25,06,21,9.80
2018,04,25,06,22,9.80
2018,04,25,06,23,9.80
2018,04,25,06,24,9.80
2018,04,25,06,25,9.80
2018,04,25,06,26,9.80
2018,04,25,06,27,9.90
2018,04,25,06,28,9.90
2018,04,25,06,29,9.90
2018,04,25,06,30,9.90
2018,04,25,06,31,9.90
2018,04,25,06,32,9.90
2018,04,25,06,33,10.00
2018,04,25,06,34,10.00
2018,04,25,06,35,10.00
2018,04,25,06,36,10.10
2018,04,25,06,37,10.10
2018,04,25,06,38,10.20
2018,04,25,06,39,10.30
2018,04,25,06,40,10.50
2018,04,25,06,41,10.60
2018,04,25,06,42,10.80
2018,04,25,06,43,10.90
2018,04,25,06,44,11.10
2018,04,25,06,45,11.20
2018,04,25,06,46,11.30
2018,04,25,06,47,11.40
2018,04,25,06,48,11.50
2018,04,25,06,49,11.70
2018,04,25,06,50,11.70
2018,04,25,06,51,11.80
2018,04,25,06,52,11.80
2018,04,25,06,53,11.80
2018,04,25,06,54,11.80
2018,04,25,06,55,11.90
2018,04,25,06,56,11.90
2018,04,25,06,57,11.90
2018,04,25,06,58,11.90
2018,04,25,06,59,11.90
2018,04,25,07,00,11.90
2018,04,25,07,01,11.90
2018,04,25,07,02,11.80
2018,04,25,07,03,11.90
2018,04,25,07,04,11.90
2018,04,25,07,05,11.90
2018,04,25,07,06,12.00
2018,04,25,07,07,12.10
2018,04,25,07,08,12.10
2018,04,25,07,09,12.20
2018,04,25,07,10,12.20
2018,04,25,07,11,12.30
2018,04,25,07,12,12.30
2018,04,25,07,13,12.30
2018,04,25,07,14,12.30
2018,04,25,07,15,12.30
2018,04,25,07,16,12.30
2018,04,25,07,17,12.30
2018,04,25,07,18,12.40
2018,04,25,07,19,12.40
2018,04,25,07,20,12.40
2018,04,25,07,21,12.40
2018,04,25,07,22,12.50
2018,04,25,07,23,12.50
2018,04,25,07,24,12.60
2018,04,25,07,25,12.60
2018,04,25,07,26,12.70
2018,04,25,07,27,12.70
2018,04,25,07,28,12.80
2018,04,25,07,29,12.80
2018,04,25,07,30,12.80
2018,04,25,07,31,12.80
2018,04,25,07,32,12.80
2018,04,25,07,33,12.90
2018,04,25,07,34,12.90
2018,04,25,07,35,12.90
2018,04,25,07,36,13.00
2018,04,25,07,37,13.00
2018,04,25,07,38,13.10
2018,04,25,07,39,13.10
2018,04,25,07,40,13.20
2018,04,25,07,41,13.20
2018,04,25,07,42,13.20
2018,04,25,07,43,13.20
2018,04,25,07,44,13.20
2018,04,25,07,45,13.20
2018,04,25,07,46,13.20
2018,04,25,07,47,13.30
2018,04,25,07,48,13.30
2018,04,25,07,49,13.30
2018,04,25,07,50,13.30
2018,04,25,07,51,13.40
2018,04,25,07,52,13.40
2018,04,25,07,53,13.40
2018,04,25,07,54,13.50
2018,04,25,07,55,13.50
2018,04,25,07,56,13.50
2018,04,25,07,57,13.60
2018,04,25,07,58,13.60
2018,04,25,07,59,13.60
2018,04,25,08,00,13.60
2018,04,25,08,01,13.60
2018,04,25,08,02,13.70
2018,04,25,08,03,13.70
2018,04,25,08,04,13.70
2018,04,25,08,05,13.70
2018,04,25,08,06,13.70
2018,04,25,08,07,13.80
2018,04,25,08,08,13.80
2018,04,25,08,09,13.80
2018,04,25,08,10,13.80
2018,04,25,08,11,13.90
2018,04,25,08,12,13.90
2018,04,25,08,13,13.90
2018,04,25,08,14,14.00
2018,04,25,08,15,14.00
2018,04,25,08,16,14.10
2018,04,25,08,17,14.10
2018,04,25,08,18,14.10
2018,04,25,08,19,14.10
2018,04,25,08,20,14.20
2018,04,25,08,21,14.20
2018,04,25,08,22,14.20
2018,04,25,08,23,14.20
2018,04,25,08,24,14.30
2018,04,25,08,25,14.30
2018,04,25,08,26,14.30
2018,04,25,08,27,14.30
2018,04,25,08,28,14.40
2018,04,25,08,29,14.40
2018,04,25,08,30,14.50
2018,04,25,08,31,14.50
2018,04,25,08,32,14.50
2018,04,25,08,33,14.50
2018,04,25,08,34,14.60
2018,04,25,08,35,14.60
2018,04,25,08,36,14.60
2018,04,25,08,37,14.60
2018,04,25,08,38,14.60
2018,04,25,08,39,14.70
2018,04,25,08,40,14.70
2018,04,25,08,41,14.70
2018,04,25,08,42,14.70
2018,04,25,08,43,14.70
2018,04,25,08,44,14.70
2018,04,25,08,45,14.80
2018,04,25,08,46,14.80
2018,04,25,08,47,14.80
2018,04,25,08,48,14.80
2018,04,25,08,49,14.80
2018,04,25,08,50,14.90
2018,04,25,08,51,14.90
2018,04,25,08,52,15.00
2018,04,25,08,53,15.00
2018,04,25,08,54,15.10
2018,04,25,08,55,15.20
2018,04,25,08,56,15.20
2018,04,25,08,57,15.30
2018,04,25,08,58,15.30
2018,04,25,08,59,15.40
2018,04,25,09,00,15.40
2018,04,25,09,01,15.50
2018,04,25,09,02,15.50
2018,04,25,09,03,15.50
2018,04,25,09,04,15.60
2018,04,25,09,05,15.60
2018,04,25,09,06,15.60
2018,04,25,09,07,15.60
2018,04,25,09,08,15.60
2018,04,25,09,09,15.60
2018,04,25,09,10,15.60
2018,04,25,09,11,15.60
2018,04,25,09,12,15.70
2018,04,25,09,13,15.70
2018,04,25,09,14,15.70
2018,04,25,09,15,15.70
2018,04,25,09,16,15.80
2018,04,25,09,17,15.80
2018,04,25,09,18,15.80
2018,04,25,09,19,15.90
2018,04,25,09,20,15.90
2018,04,25,09,21,15.90
2018,04,25,09,22,15.90
2018,04,25,09,23,16.00
2018,04,25,09,24,16.00
2018,04,25,09,25,16.00
2018,04,25,09,26,16.00
2018,04,25,09,27,16.10
2018,04,25,09,28,16.10
2018,04,25,09,29,16.10
2018,04,25,09,30,16.20
2018,04,25,09,31,16.20
2018,04,25,09,32,16.30
2018,04,25,09,33,16.30
2018,04,25,09,34,16.40
2018,04,25,09,35,16.50
2018,04,25,09,36,16.60
2018,04,25,09,37,16.60
2018,04,25,09,38,16.60
2018,04,25,09,39,16.70
2018,04,25,09,40,16.80
2018,04,25,09,41,16.80
2018,04,25,09,42,16.90
2018,04,25,09,43,17.00
2018,04,25,09,44,17.00
2018,04,25,09,45,17.00
2018,04,25,09,46,17.10
2018,04,25,09,47,17.10
2018,04,25,09,48,17.10
2018,04,25,09,49,17.10
2018,04,25,09,50,17.10
2018,04,25,09,51,17.10
2018,04,25,09,52,17.20
2018,04,25,09,53,17.20
2018,04,25,09,54,17.20
2018,04,25,09,55,17.20
2018,04,25,09,56,17.20
2018,04,25,09,57,17.20
2018,04,25,09,58,17.20
2018,04,25,09,59,17.20
2018,04,25,10,00,17.30
2018,04,25,10,01,17.30
2018,04,25,10,02,17.40
2018,04,25,10,03,17.40
2018,04,25,10,04,17.40
2018,04,25,10,05,17.40
2018,04,25,10,06,17.40
2018,04,25,10,07,17.30
2018,04,25,10,08,17.30
2018,04,25,10,09,17.30
2018,04,25,10,10,17.40
2018,04,25,10,11,17.30
2018,04,25,10,12,17.30
2018,04,25,10,13,17.30
2018,04,25,10,14,17.30
2018,04,25,10,15,17.40
2018,04,25,10,16,17.40
2018,04,25,10,17,17.50
2018,04,25,10,18,17.60
2018,04,25,10,19,17.70
2018,04,25,10,20,17.70
2018,04,25,10,21,17.80
2018,04,25,10,22,17.80
2018,04,25,10,23,17.80
2018,04,25,10,24,17.80
2018,04,25,10,25,17.90
2018,04,25,10,26,17.90
2018,04,25,10,27,17.90
2018,04,25,10,28,18.00
2018,04,25,10,29,18.00
2018,04,25,10,30,18.10
2018,04,25,10,31,18.10
2018,04,25,10,32,18.20
2018,04,25,10,33,18.20
2018,04,25,10,34,18.30
2018,04,25,10,35,18.30
2018,04,25,10,36,18.40
2018,04,25,10,37,18.40
2018,04,25,10,38,18.50
2018,04,25,10,39,18.60
2018,04,25,10,40,18.60
2018,04,25,10,41,18.70
2018,04,25,10,42,18.70
2018,04,25,10,43,18.80
2018,04,25,10,44,18.80
2018,04,25,10,45,18.90
2018,04,25,10,46,18.90
2018,04,25,10,47,18.90
2018,04,25,10,48,19.00
2018,04,25,10,49,19.10
2018,04,25,10,50,19.10
2018,04,25,10,51,19.10
2018,04,25,10,52,19.10
2018,04,25,10,53,19.20
2018,04,25,10,54,19.20
2018,04,25,10,55,19.20
2018,04,25,10,56,19.20
2018,04,25,10,57,19.30
2018,04,25,10,58,19.30
2018,04,25,10,59,19.30
2018,04,25,11,00,19.30
2018,04,25,11,01,19.30
2018,04,25,11,02,19.30
2018,04,25,11,03,19.30
2018,04,25,11,04,19.30
2018,04,25,11,05,19.40
2018,04,25,11,06,19.40
2018,04,25,11,07,19.50
2018,04,25,11,08,19.50
2018,04,25,11,09,19.50
2018,04,25,11,10,19.50
2018,04,25,11,11,19.50
2018,04,25,11,12,19.60
2018,04,25,11,13,19.60
2018,04,25,11,14,19.60
2018,04,25,11,15,19.70
2018,04,25,11,16,19.60
2018,04,25,11,17,19.60
2018,04,25,11,18,19.60
2018,04,25,11,19,19.60
2018,04,25,11,20,19.70
2018,04,25,11,21,19.70
2018,04,25,11,22,19.80
2018,04,25,11,23,19.80
2018,04,25,11,24,19.80
2018,04,25,11,25,19.90
2018,04,25,11,26,19.90
2018,04,25,11,27,19.90
2018,04,25,11,28,19.90
2018,04,25,11,29,19.90
2018,04,25,11,30,19.90
2018,04,25,11,31,19.90
2018,04,25,11,32,19.90
2018,04,25,11,33,20.00
2018,04,25,11,34,20.00
2018,04,25,11,35,20.10
2018,04,25,11,36,20.10
2018,04,25,11,37,20.20
2018,04,25,11,38,20.20
2018,04,25,11,39,20.30
2018,04,25,11,40,20.40
2018,04,25,11,41,20.40
2018,04,25,11,42,20.50
2018,04,25,11,43,20.60
2018,04,25,11,44,20.60
2018,04,25,11,45,20.60
2018,04,25,11,46,20.70
2018,04,25,11,47,20.70
2018,04,25,11,48,20.70
2018,04,25,11,49,20.70
2018,04,25,11,50,20.70
2018,04,25,11,51,20.60
2018,04,25,11,52,20.60
2018,04,25,11,53,20.60
2018,04,25,11,54,20.60
2018,04,25,11,55,20.60
2018,04,25,11,56,20.60
2018,04,25,11,57,20.60
2018,04,25,11,58,20.70
2018,04,25,11,59,20.70
2018,04,25,12,00,20.70
2018,04,25,12,01,20.70
2018,04,25,12,02,20.70
2018,04,25,12,03,20.70
2018,04,25,12,04,20.80
2018,04,25,12,05,20.70
2018,04,25,12,06,20.70
2018,04,25,12,07,20.70
2018,04,25,12,08,20.50
2018,04,25,12,09,20.40
2018,04,25,12,10,20.30
2018,04,25,12,11,20.30
2018,04,25,12,12,20.20
2018,04,25,12,13,20.10
2018,04,25,12,14,20.10
2018,04,25,12,15,20.20
2018,04,25,12,16,20.20
2018,04,25,12,17,20.30
2018,04,25,12,18,20.30
2018,04,25,12,19,20.40
2018,04,25,12,20,20.40
2018,04,25,12,21,20.50
2018,04,25,12,22,20.50
2018,04,25,12,23,20.60
2018,04,25,12,24,20.70
2018,04,25,12,25,20.70
2018,04,25,12,26,20.80
2018,04,25,12,27,20.80
2018,04,25,12,28,20.90
2018,04,25,12,29,20.90
2018,04,25,12,30,21.00
2018,04,25,12,31,21.00
2018,04,25,12,32,21.10
2018,04,25,12,33,21.10
2018,04,25,12,34,21.10
2018,04,25,12,35,21.20
2018,04,25,12,36,21.20
2018,04,25,12,37,21.20
2018,04,25,12,38,21.20
2018,04,25,12,39,21.30
2018,04,25,12,40,21.30
2018,04,25,12,41,21.30
2018,04,25,12,42,21.30
2018,04,25,12,43,21.40
2018,04,25,12,44,21.50
2018,04,25,12,45,21.50
2018,04,25,12,46,21.60
2018,04,25,12,47,21.70
2018,04,25,12,48,21.80
2018,04,25,12,49,21.80
2018,04,25,12,50,21.70
2018,04,25,12,51,21.60
2018,04,25,12,52,21.50
2018,04,25,12,53,21.40
2018,04,25,12,54,21.30
2018,04,25,12,55,21.30
2018,04,25,12,56,21.20
2018,04,25,12,57,21.30
2018,04,25,12,58,21.30
2018,04,25,12,59,21.30
2018,04,25,13,00,21.30
2018,04,25,13,01,21.30
2018,04,25,13,02,21.40
2018,04,25,13,03,21.40
2018,04,25,13,04,21.50
2018,04,25,13,05,21.60
2018,04,25,13,06,21.60
2018,04,25,13,07,21.70
2018,04,25,13,08,21.70
2018,04,25,13,09,21.80
2018,04,25,13,10,21.90
2018,04,25,13,11,22.00
2018,04,25,13,12,22.00
2018,04,25,13,13,22.10
2018,04,25,13,14,22.20
2018,04,25,13,15,22.20
2018,04,25,13,16,22.30
2018,04,25,13,17,22.30
2018,04,25,13,18,22.30
2018,04,25,13,19,22.40
2018,04,25,13,20,22.50
2018,04,25,13,21,22.50
2018,04,25,13,22,22.50
2018,04,25,13,23,22.50
2018,04,25,13,24,22.50
2018,04,25,13,25,22.60
2018,04,25,13,26,22.60
2018,04,25,13,27,22.70
2018,04,25,13,28,22.70
2018,04,25,13,29,22.80
2018,04,25,13,30,22.90
2018,04,25,13,31,23.00
2018,04,25,13,32,23.10
2018,04,25,13,33,23.10
2018,04,25,13,34,23.10
2018,04,25,13,35,23.10
2018,04,25,13,36,23.20
2018,04,25,13,37,23.20
2018,04,25,13,38,23.20
2018,04,25,13,39,23.10
2018,04,25,13,40,23.00
2018,04,25,13,41,22.90
2018,04,25,13,42,22.80
2018,04,25,13,43,22.70
2018,04,25,13,44,22.60
2018,04,25,13,45,22.60
2018,04,25,13,46,22.60
2018,04,25,13,47,22.50
2018,04,25,13,48,22.50
2018,04,25,13,49,22.50
2018,04,25,13,50,22.50
2018,04,25,13,51,22.50
2018,04,25,13,52,22.60
2018,04,25,13,53,22.60
2018,04,25,13,54,22.50
2018,04,25,13,55,22.40
2018,04,25,13,56,22.30
2018,04,25,13,57,22.20
2018,04,25,13,58,22.20
2018,04,25,13,59,22.10
2018,04,25,14,00,22.10
2018,04,25,14,01,22.10
2018,04,25,14,02,22.10
2018,04,25,14,03,22.20
2018,04,25,14,04,22.20
2018,04,25,14,05,22.20
2018,04,25,14,06,22.20
2018,04,25,14,07,22.20
2018,04,25,14,08,22.10
2018,04,25,14,09,22.00
2018,04,25,14,10,21.90
2018,04,25,14,11,21.80
2018,04,25,14,12,21.70
2018,04,25,14,13,21.60
2018,04,25,14,14,21.60
2018,04,25,14,15,21.50
2018,04,25,14,16,21.40
2018,04,25,14,17,21.40
2018,04,25,14,18,21.40
2018,04,25,14,19,21.40
2018,04,25,14,20,21.40
2018,04,25,14,21,21.40
2018,04,25,14,22,21.40
2018,04,25,14,23,21.40
2018,04,25,14,24,21.50
2018,04,25,14,25,21.50
2018,04,25,14,26,21.60
2018,04,25,14,27,21.60
2018,04,25,14,28,21.70
2018,04,25,14,29,21.70
2018,04,25,14,30,21.80
2018,04,25,14,31,21.90
2018,04,25,14,32,22.00
2018,04,25,14,33,22.10
2018,04,25,14,34,22.10
2018,04,25,14,35,22.20
2018,04,25,14,36,22.20
2018,04,25,14,37,22.20
2018,04,25,14,38,22.10
2018,04,25,14,39,22.10
2018,04,25,14,40,22.00
2018,04,25,14,41,22.10
2018,04,25,14,42,22.10
2018,04,25,14,43,22.10
2018,04,25,14,44,22.10
2018,04,25,14,45,22.20
2018,04,25,14,46,22.10
2018,04,25,14,47,22.10
2018,04,25,14,48,22.10
2018,04,25,14,49,22.10
2018,04,25,14,50,22.20
2018,04,25,14,51,22.20
2018,04,25,14,52,22.20
2018,04,25,14,53,22.30
2018,04,25,14,54,22.30
2018,04,25,14,55,22.40
2018,04,25,14,56,22.50
2018,04,25,14,57,22.60
2018,04,25,14,58,22.60
2018,04,25,14,59,22.70
2018,04,25,15,00,22.70
2018,04,25,15,01,22.70
2018,04,25,15,02,22.70
2018,04,25,15,03,22.70
2018,04,25,15,04,22.80
2018,04,25,15,05,22.80
2018,04,25,15,06,22.70
2018,04,25,15,07,22.60
2018,04,25,15,08,22.60
2018,04,25,15,09,22.60
2018,04,25,15,10,22.60
2018,04,25,15,11,22.60
2018,04,25,15,12,22.50
2018,04,25,15,13,22.50
2018,04,25,15,14,22.40
2018,04,25,15,15,22.40
2018,04,25,15,16,22.40
2018,04,25,15,17,22.40
2018,04,25,15,18,22.40
2018,04,25,15,19,22.40
2018,04,25,15,20,22.50
2018,04,25,15,21,22.60
2018,04,25,15,22,22.70
2018,04,25,15,23,22.80
2018,04,25,15,24,22.80
2018,04,25,15,25,22.90
2018,04,25,15,26,22.90
2018,04,25,15,27,22.90
2018,04,25,15,28,22.90
2018,04,25,15,29,22.90
2018,04,25,15,30,22.90
2018,04,25,15,31,22.90
2018,04,25,15,32,22.90
2018,04,25,15,33,22.80
2018,04,25,15,34,22.80
2018,04,25,15,35,22.80
2018,04,25,15,36,22.90
2018,04,25,15,37,22.90
2018,04,25,15,38,22.90
2018,04,25,15,39,23.00
2018,04,25,15,40,23.00
2018,04,25,15,41,23.00
2018,04,25,15,42,23.10
2018,04,25,15,43,23.10
2018,04,25,15,44,23.20
2018,04,25,15,45,23.20
2018,04,25,15,46,23.20
2018,04,25,15,47,23.20
2018,04,25,15,48,23.20
2018,04,25,15,49,23.20
2018,04,25,15,50,23.30
2018,04,25,15,51,23.30
2018,04,25,15,52,23.30
2018,04,25,15,53,23.40
2018,04,25,15,54,23.40
2018,04,25,15,55,23.40
2018,04,25,15,56,23.40
2018,04,25,15,57,23.40
2018,04,25,15,58,23.40
2018,04,25,15,59,23.40
2018,04,25,16,00,23.40
2018,04,25,16,01,23.40
2018,04,25,16,02,23.40
2018,04,25,16,03,23.40
2018,04,25,16,04,23.40
2018,04,25,16,05,23.40
2018,04,25,16,06,23.40
2018,04,25,16,07,23.40
2018,04,25,16,08,23.40
2018,04,25,16,09,23.40
2018,04,25,16,10,23.40
2018,04,25,16,11,23.40
2018,04,25,16,12,23.40
2018,04,25,16,13,23.50
2018,04,25,16,14,23.50
2018,04,25,16,15,23.60
2018,04,25,16,16,23.60
2018,04,25,16,17,23.60
2018,04,25,16,18,23.60
2018,04,25,16,19,23.60
2018,04,25,16,20,23.50
2018,04,25,16,21,23.50
2018,04,25,16,22,23.40
2018,04,25,16,23,23.40
2018,04,25,16,24,23.30
2018,04,25,16,25,23.30
2018,04,25,16,26,23.30
2018,04,25,16,27,23.30
2018,04,25,16,28,23.30
2018,04,25,16,29,23.20
2018,04,25,16,30,23.10
2018,04,25,16,31,23.10
2018,04,25,16,32,23.10
2018,04,25,16,33,23.10
2018,04,25,16,34,23.10
2018,04,25,16,35,23.10
2018,04,25,16,36,23.10
2018,04,25,16,37,23.10
2018,04,25,16,38,23.10
2018,04,25,16,39,23.10
2018,04,25,16,40,23.10
2018,04,25,16,41,23.20
2018,04,25,16,42,23.20
2018,04,25,16,43,23.20
2018,04,25,16,44,23.20
2018,04,25,16,45,23.20
2018,04,25,16,46,23.20
2018,04,25,16,47,23.20
2018,04,25,16,48,23.20
2018,04,25,16,49,23.20
2018,04,25,16,50,23.20
2018,04,25,16,51,23.20
2018,04,25,16,52,23.20
2018,04,25,16,53,23.20
2018,04,25,16,54,23.20
2018,04,25,16,55,23.30
2018,04,25,16,56,23.30
2018,04,25,16,57,23.30
2018,04,25,16,58,23.30
2018,04,25,16,59,23.30
2018,04,25,17,00,23.30
2018,04,25,17,01,23.30
2018,04,25,17,02,23.30
2018,04,25,17,03,23.30
2018,04,25,17,04,23.30
2018,04,25,17,05,23.30
2018,04,25,17,06,23.30
2018,04,25,17,07,23.40
2018,04,25,17,08,23.40
2018,04,25,17,09,23.40
2018,04,25,17,10,23.40
2018,04,25,17,11,23.40
2018,04,25,17,12,23.40
2018,04,25,17,13,23.40
2018,04,25,17,14,23.40
2018,04,25,17,15,23.40
2018,04,25,17,16,23.40
2018,04,25,17,17,23.40
2018,04,25,17,18,23.40
2018,04,25,17,19,23.40
2018,04,25,17,20,23.30
2018,04,25,17,21,23.30
2018,04,25,17,22,23.30
2018,04,25,17,23,23.20
2018,04,25,17,24,23.20
2018,04,25,17,25,23.20
2018,04,25,17,26,23.20
2018,04,25,17,27,23.20
2018,04,25,17,28,23.20
2018,04,25,17,29,23.20
2018,04,25,17,30,23.20
2018,04,25,17,31,23.20